This demonstration page uses our WeatherBlox Daily Observations layout. Learn more.

Left ArrowRight Arrow

44.89941, -97.11507

Hourly Observations for June 12, 2018

Temp ( °F °C ) Dew Point ( °F °C ) Humidity (%) Winds ( mph kmh ) Pressure ( in mb ) Visibility ( mi km ) Precip ( " mm )
12:53 am 00:53 Cloudy 60 15.6 60 15.6 100 100 N 7 11 29.89 1012 10 16 0.00 0.00
1:53 am 01:53 Cloudy 61 16.1 61 16.1 100 100 E 9 15 29.82 1010 10 16 0.00 0.00
3:53 am 03:53 Cloudy 60 15.6 60 15.6 100 100 N 6 9 29.90 1013 10 16 0.00 0.00
4:33 am 04:33 Cloudy with Mist and Fog 59 15 59 15 100 100 N 6 9 29.91 1013 2 3 0.00 0.00
4:41 am 04:41 Cloudy with Mist and Fog 59 15 59 15 100 100 N 6 9 29.91 1013 1 1 0.00 0.00
4:53 am 04:53 Mostly Cloudy with Mist and Fog 59 15 59 15 100 100 N 3 6 29.90 1013 1 1 0.00 0.00
5:26 am 05:26 Cloudy with Mist and Fog 59 15 59 15 100 100 Calm 29.85 1011 2 2 0.00 0.00
5:31 am 05:31 Cloudy with Mist and Fog 59 15 59 15 100 100 E 3 6 29.85 1011 3 5 0.00 0.00
5:53 am 05:53 Cloudy 59 15 59 15 100 100 Calm 29.89 1012 10 16 0.00 0.00
6:03 am 06:03 Cloudy 60 15.6 60 15.6 100 100 Calm 29.88 1012 10 16 0.00 0.00
6:53 am 06:53 Cloudy 61 16.1 61 16.1 100 100 WNW 5 7 29.92 1013 10 16 0.00 0.00
7:26 am 07:26 Cloudy 63 17.2 62 16.7 97 97 WNW 8 13 29.91 1013 10 16 0.00 0.00
7:51 am 07:51 Cloudy 63 17 63 17 100 100 WNW 8 13 29.91 1013 9 14 0.00 0.00
7:53 am 07:53 Cloudy 63 17.2 63 17.2 100 100 WNW 9 15 29.93 1014 9 14 0.00 0.00
8:14 am 08:14 Cloudy 63 17.2 62 16.7 97 97 WNW 12 19 29.91 1013 10 16 0.00 0.00
8:53 am 08:53 Cloudy with Mist and Fog 59 15 59 15 100 100 NW 18 30 29.96 1015 3 4 0.00 0.00
9:03 am 09:03 Cloudy with Mist and Fog 56 13.3 56 13.3 100 100 NW 18 30 29.97 1015 2 3 0.00 0.00
9:18 am 09:18 Cloudy with Mist and Fog 56 13.3 56 13.3 100 100 NNW 15 24 29.97 1015 3 4 0.00 0.00
9:29 am 09:29 Cloudy with Mist and Fog 56 13.3 56 13.3 100 100 N 16 26 29.97 1015 5 8 0.00 0.00
9:43 am 09:43 Cloudy 58 14.4 57 13.9 97 97 N 12 19 29.97 1015 9 14 0.00 0.00
9:53 am 09:53 Cloudy 59 15 57 13.9 93 93 N 12 19 29.98 1015 10 16 0.00 0.00
10:53 am 10:53 Cloudy 63 17.2 55 12.8 76 76 NNW 21 33 29.97 1015 10 16 0.00 0.00
11:20 am 11:20 Mostly Cloudy 63 17.2 54 12.2 73 73 N 17 28 29.94 1014 10 16 0.00 0.00
11:53 am 11:53 Partly Cloudy 63 17.2 53 11.7 70 70 N 13 20 29.97 1015 10 16 0.00 0.00
12:53 pm 12:53 Mostly Cloudy 67 19.4 55 12.8 66 66 N 10 17 29.97 1015 10 16 0.00 0.00
1:53 pm 13:53 Sunny 69 20.6 55 12.8 61 61 VRB 3 6 29.96 1015 10 16 0.00 0.00
2:53 pm 14:53 Mostly Sunny 71 21.7 54 12.2 55 55 NNW 8 13 29.95 1014 10 16 0.00 0.00
3:53 pm 15:53 Partly Cloudy 72 22.2 53 11.7 52 52 N 10 17 29.95 1014 10 16 0.00 0.00
4:53 pm 16:53 Sunny 72 22.2 52 11.1 50 50 NW 8 13 29.94 1014 10 16 0.00 0.00
5:53 pm 17:53 Partly Cloudy 72 22.2 50 10 46 46 NNW 9 15 29.93 1014 10 16 0.00 0.00
6:53 pm 18:53 Mostly Sunny 72 22.2 45 7.2 38 38 WNW 10 17 29.95 1014 10 16 0.00 0.00
7:53 pm 19:53 Sunny 70 21.1 44 6.7 39 39 NW 10 17 29.96 1015 10 16 0.00 0.00
8:53 pm 20:53 Sunny 65 18.3 45 7.2 49 49 WNW 7 11 29.98 1015 10 16 0.00 0.00
9:53 pm 21:53 Clear 63 17.2 47 8.3 56 56 WNW 7 11 30.00 1016 10 16 0.00 0.00
10:53 pm 22:53 Clear 61 16.1 46 7.8 58 58 WNW 7 11 30.01 1016 10 16 0.00 0.00
11:53 pm 23:53 Clear 60 15.6 48 8.9 65 65 NW 5 7 30.02 1017 10 16 0.00 0.00

Powered by AerisWeather